Location: Newark
(22.3060°N, 114.2134°E)
Time: 08:09:32
(UTC+00:00)

Tiros 1 despin weight - Pass Details

Date: 05 August 2021
Orbit: 593 x 641 km, 48.2° (Epoch: 27 September)

Event Time Altitude Azimuth Distance (km) Brightness Sun altitude
Rises 12:21:11 0° 300° (WNW) 2,922 ? -17.8°
Reaches altitude 10° 12:23:49 10° 287° (WNW) 2,005 ? -18.4°
Maximum altitude 12:27:37 25° 232° (SW) 1,252 ? -19.1°
Enters shadow 12:30:17 15° 186° (S) 1,659 ? -19.7°
